Regional Weather Roundup
Issued by NWS

Home | Current Version | Previous Version | Graphics & Text | Print | Product List | Glossary On
Versions: 1 2 3 4 5 6 7 8 9 10 11 12 13 14 15 16 17 18 19 20 21 22 23 24 25 26 27 28 29 30 31 32 33 34 35 36 37 38 39 40 41 42 43 44 45 46 47 48 49 50
000
ASUS43 KIND 201359
RWRIN

WEATHER ROUNDUP FOR INDIANA
NATIONAL WEATHER SERVICE INDIANAPOLIS IN
900 AM EST FRI JAN 20 2017

NOTE: "FAIR" INDICATES FEW OR NO CLOUDS BELOW 12,000 FEET WITH NO
SIGNIFICANT WEATHER AND/OR OBSTRUCTIONS TO VISIBILITY.

* - STATION DOES NOT REPORT WEATHER SUCH AS PRECIPITATION OR FOG.

+ - STATION NOT QUALITY CONTROLLED BY THE NATIONAL WEATHER SERVICE.
    USE DATA WITH CAUTION...ESPECIALLY DEWPOINT AND RELATIVE
    HUMIDITY OBSERVATIONS.

INZ001>003-010>013-019-020-201500-
NORTHWEST INDIANA

CITY           SKY/WX    TMP DP  RH WIND       PRES   REMARKS
GARY /AIRPORT/ LGT RAIN  39  39 100 NE6       29.62S
MICHIGAN CITY+ CLOUDY    37  37 100 CALM      29.62S FOG
MONTICELLO +   DRIZZLE   40  39  96 CALM      29.61R
RENSSELAER +   CLOUDY    39  39 100 CALM      29.61S FOG

$$

LMZ046-743>745-201500-
SOUTHERN LAKE MICHIGAN

STATION/POSITION TIME  TEMP    WIND        PRES    WAVE
                       AIR SEA DIR/SP/G            HT
                 (UTC) (F)     (DEG/KT/KT) (MB)    (FT)
BURNS HARBOR     1304   35      60/  7/ 11 1003.7
MICHIGAN CITY    1330   34      40/  8/  9   N/A

$$

INZ004-005-014>016-021>024-201500-
NORTH CENTRAL INDIANA

CITY           SKY/WX    TMP DP  RH WIND       PRES   REMARKS
ELKHART        FOG       37  36  93 E6        29.62R VSB 1
GOSHEN         CLOUDY    37  34  89 NE3       29.61R FOG
SOUTH BEND     FOG       37  36  96 E5        29.62S VSB 1

$$

INZ006>009-017-018-025>027-201500-
NORTHEAST INDIANA

CITY           SKY/WX    TMP DP  RH WIND       PRES   REMARKS
ANGOLA *+      CLOUDY    34  34 100 E6        29.60R WCI  29
FORT WAYNE     DRIZZLE   39  36  89 SE3       29.62R FOG
KENDALLVILLE + CLOUDY    35  35 100 E5        29.61R FOG     WCI  31

$$

INZ028-029-035-036-043>045-051>053-201500-
WEST CENTRAL INDIANA

CITY           SKY/WX    TMP DP  RH WIND       PRES   REMARKS
CRAWFORDSVL +  CLOUDY    44  44 100 S3        29.62S FOG
LAFAYETTE      CLOUDY    43  43 100 CALM      29.61R FOG
TERRE HAUTE    CLOUDY    49  48  97 SW6       29.66R FOG

$$

INZ030>032-037>040-046>048-054>057-064-065-201500-
CENTRAL INDIANA

CITY           SKY/WX    TMP DP  RH WIND       PRES   REMARKS
ANDERSON       DRIZZLE   48  48 100 SW6       29.63
COLUMBUS       LGT RAIN  48  48 100 S3        29.66R FOG
INDIANAPOLIS   DRZL/FOG  50  50 100 SW9       29.64R VSB 1/4
-EAGLE CREEK   CLOUDY    50  48  93 VRB5      29.63R FOG
KOKOMO +       LGT RAIN  41  41 100 CALM      29.62R VSB 1/4
MT COMFORT *+  CLOUDY    48  48 100 SW9       29.64R VSB 1/2
SHELBYVILLE    CLOUDY    51  49  92 SW7       29.64R

$$

INZ033-034-041-042-049-050-058-059-201500-
EAST CENTRAL INDIANA

CITY           SKY/WX    TMP DP  RH WIND       PRES   REMARKS
MUNCIE         CLOUDY    49  48  97 SW10      29.61R

$$

INZ060-061-067>069-081>083-085>088-201500-
SOUTHWEST INDIANA

CITY           SKY/WX    TMP DP  RH WIND       PRES   REMARKS
EVANSVILLE     CLOUDY    54  50  86 SW13      29.71R
HUNTINGBURG *+ CLOUDY    54  52  93 SW16      29.72R

$$

INZ062-063-066-070>080-084-089>092-201500-
SOUTH CENTRAL AND SOUTHEAST INDIANA

CITY           SKY/WX    TMP DP  RH WIND       PRES   REMARKS
BLOOMINGTON    CLOUDY    53  50  89 SW15      29.66R
MADISON *+     CLOUDY    54  52  94 S9        29.71R
SEYMOUR +      CLOUDY    55  52  88 SW12      29.68R

$$





USA.gov is the U.S. government's official web portal to all federal, state and local government web resources and services.